Lobo

Go HERE for most recent data if this page is not up to date.

Jump to table bottom
Date/Time Temp deg F RH % 24 Hr Snow (in) Snow Depth (in) H2O (in)
01/21 07:00 17.8 89 6.9 43.9 0.01
01/21 06:00 19.9 91 6.8 44.3 0.17
01/21 05:00 22.1 94 5.2 42.9 0.01
01/21 04:00 22.2 94 5.1 42.9 0.05
01/21 03:00 22.2 94 4.5 42.4 0.02
01/21 02:00 22.4 94 4.2 42.1 0.04
01/21 01:00 22.7 94 3.0 39.9 0.09
01/21 00:00 23.3 94 1.0 38.9 0.02
01/20 23:00 23.9 93 0.4 126.5 0.03
01/20 22:00 24.6 84 0.0 37.7 0.00
01/20 21:00 25.1 78 0.0 37.8 0.00
01/20 20:00 25.3 76 0.0 37.9 0.00
01/20 19:00 24.6 83 0.0 37.8 0.00
01/20 18:00 25.5 85 0.0 37.7 0.00
01/20 17:00 26.5 78 0.0 38.0 0.00
01/20 16:00 27.0 73 0.8 37.9 0.00
01/20 15:00 27.1 75 0.7 37.9 0.00
01/20 14:00 27.2 76 0.7 37.9 0.00
01/20 13:00 26.4 77 0.8 38.0 0.00
01/20 12:00 26.2 89 0.7 37.9 0.00
01/20 11:00 25.4 89 0.8 38.0 0.00
01/20 10:00 24.4 94 0.8 38.0 0.00
01/20 09:00 23.1 96 0.8 38.0 0.02
01/20 08:00 23.3 96 0.6 38.1 0.01
01/20 07:00 23.7 94 0.4 37.7 0.00
01/20 06:00 23.7 95 0.4 37.7 0.00
01/20 05:00 24.1 96 0.4 37.8 0.00
01/20 04:00 23.6 93 0.5 37.9 0.00
01/20 03:00 24.3 96 0.4 37.7 0.00
01/20 02:00 25.0 91 0.3 37.7 0.01
01/20 01:00 26.2 90 0.2 37.1 0.00
01/20 00:00 26.9 88 0.2 37.6 0.00
.